CARTOSAT-2D (41948 NORAD) Tracking and Keplerian Element Data

This shows tracking and keplerian element data for the satellite.

Feedback or suggestion? Click here.




ElementValue
Catalog41948
NameCARTOSAT-2D
Epoch Orbit49041
Epoch Day354.27328297
Epoch Year2025
RAAN51.6568
Inclination97.4386
Eccentricity0.0005364
Argument of Perigee139.4841
Mean Anonmoly220.6794
Mean Motion15.19326795
Decay Rate1.691E-05
L11 41948U 17008A 25354.27328297 .00001691 00000+0 83262-4 0 9992
L22 41948 97.4386 51.6568 0005364 139.4841 220.6794 15.19326795490410



Live tracking and technical data element details for CARTOSAT-2D (NORAD 41948). CARTOSAT-2D can be tracked NOW for your location showing map with azimuth and elevation plus other details from your city location.







IsCatalogInMostPopularTable: catalog: 41948, numindb: 662
Update: records affected: 1



GetName: 41948 CARTOSAT-2D

Hit Count: updated at: Sat, 07 Mar 2026 06:17:25 GMT